Temp
-11 -11 -11 -10 -10 -10 -10 -10 -11 -11 -11 -11 -11 -11 -11 -12 -12 -12 -12 -12 -12 -13 -14 -15 -17 -19 -20 -21 -22 -22 -23 -23 -23 -22 -23 -22 -22 -22 -21 -21 -20 -20 -19
-11 -11 -11 -11 -11 -11 -11 -11 -11 -12 -12 -12 -12 -12 -12 -12 -12 -12 -12 -13 -14 -16 -18 -20 -21 -21 -22 -22 -23 -23 -23 -23 -23 -23 -23 -23 -23 -23 -23 -22 -21 -21 -20
-11 -11 -11 -11 -11 -12 -12 -12 -12 -13 -13 -12 -12 -12 -12 -12 -13 -14 -15 -17 -19 -21 -22 -22 -22 -23 -23 -23 -23 -23 -23 -23 -24 -24 -23 -23 -23 -23 -23 -23 -22 -22 -21
-11 -11 -12 -12 -12 -12 -12 -13 -13 -13 -12 -13 -13 -13 -13 -14 -16 -18 -20 -22 -22 -23 -23 -23 -24 -24 -24 -23 -23 -24 -24 -24 -24 -24 -23 -23 -24 -23 -23 -23 -22 -22 -22
-12 -12 -12 -12 -13 -13 -13 -13 -13 -13 -13 -13 -13 -13 -15 -18 -21 -22 -23 -23 -23 -24 -24 -24 -24 -23 -23 -23 -24 -23 -23 -23 -23 -23 -24 -24 -24 -24 -23 -23 -23 -22 -22
-13 -13 -13 -13 -13 -13 -13 -13 -13 -13 -14 -14 -15 -17 -20 -22 -23 -23 -24 -24 -24 -24 -23 -23 -23 -23 -23 -23 -23 -23 -23 -23 -23 -24 -23 -23 -23 -23 -23 -23 -23 -22 -22
-14 -13 -13 -13 -14 -14 -14 -14 -14 -14 -14 -16 -18 -21 -23 -23 -24 -23 -23 -23 -23 -23 -23 -24 -23 -24 -24 -24 -23 -24 -24 -24 -25 -24 -23 -23 -23 -23 -23 -23 -23 -22 -22
-14 -14 -14 -14 -14 -14 -14 -14 -14 -15 -17 -19 -22 -23 -24 -23 -23 -23 -23 -23 -23 -24 -25 -26 -26 -26 -26 -26 -26 -25 -25 -26 -26 -25 -24 -24 -24 -23 -23 -23 -23 -23 -23
-14 -14 -14 -15 -15 -15 -15 -15 -16 -18 -20 -23 -24 -24 -23 -23 -23 -23 -24 -24 -25 -26 -26 -27 -27 -28 -29 -30 -30 -29 -28 -28 -28 -27 -26 -24 -24 -25 -24 -23 -23 -23 -23
-15 -15 -15 -15 -15 -15 -16 -17 -19 -21 -23 -24 -24 -24 -24 -23 -24 -25 -26 -26 -26 -26 -27 -27 -28 -28 -29 -30 -31 -30 -30 -29 -28 -28 -27 -26 -25 -25 -25 -24 -24 -24 -23
-15 -15 -16 -16 -16 -17 -18 -20 -22 -24 -24 -24 -24 -24 -23 -24 -25 -26 -27 -26 -27 -27 -27 -27 -28 -28 -29 -29 -30 -30 -29 -29 -28 -28 -27 -27 -26 -26 -26 -25 -25 -24 -24
-16 -16 -16 -17 -17 -19 -20 -22 -24 -25 -25 -24 -24 -24 -24 -25 -26 -26 -26 -27 -27 -27 -28 -28 -28 -28 -29 -29 -29 -29 -29 -29 -28 -28 -27 -27 -27 -27 -27 -26 -26 -25 -24
-17 -17 -17 -18 -19 -21 -23 -24 -25 -25 -25 -25 -24 -24 -24 -26 -26 -26 -27 -27 -28 -28 -28 -29 -29 -29 -28 -28 -29 -28 -29 -28 -28 -28 -28 -28 -27 -27 -27 -27 -27 -26 -25
-17 -17 -18 -19 -21 -23 -25 -25 -25 -25 -25 -24 -24 -24 -25 -26 -26 -27 -27 -27 -27 -27 -28 -28 -28 -28 -28 -28 -28 -28 -28 -28 -28 -28 -27 -27 -27 -27 -26 -26 -26 -25 -24
-17 -18 -19 -21 -23 -24 -25 -25 -25 -25 -25 -25 -25 -25 -26 -27 -27 -27 -27 -27 -27 -27 -27 -28 -28 -29 -29 -28 -29 -28 -28 -28 -28 -27 -27 -26 -26 -26 -26 -24 -24 -23 -22
-18 -19 -21 -23 -24 -25 -25 -25 -26 -25 -25 -25 -26 -27 -27 -27 -27 -27 -27 -27 -28 -27 -27 -28 -28 -29 -28 -28 -28 -28 -28 -28 -27 -27 -26 -25 -25 -24 -24 -23 -22 -22 -21
-20 -21 -22 -24 -25 -25 -26 -26 -26 -26 -26 -26 -27 -27 -27 -28 -27 -28 -27 -28 -28 -28 -28 -28 -28 -28 -28 -28 -28 -27 -27 -27 -27 -26 -26 -25 -23 -22 -22 -22 -21 -21 -21
-21 -23 -24 -25 -26 -26 -26 -26 -26 -26 -25 -25 -27 -28 -28 -28 -28 -29 -28 -28 -28 -29 -28 -28 -28 -28 -28 -27 -27 -27 -27 -27 -26 -26 -24 -22 -22 -22 -21 -21 -21 -21 -21
-23 -25 -26 -26 -26 -27 -27 -27 -26 -26 -26 -26 -27 -28 -28 -28 -29 -29 -29 -28 -28 -28 -28 -28 -28 -27 -27 -27 -26 -26 -27 -26 -25 -24 -22 -21 -21 -21 -21 -21 -21 -21 -21
-25 -26 -26 -27 -27 -27 -27 -27 -27 -26 -26 -27 -28 -28 -28 -28 -29 -28 -28 -28 -28 -28 -28 -28 -27 -27 -26 -26 -26 -26 -26 -25 -24 -23 -22 -22 -21 -21 -21 -21 -22 -22 -22
-26 -27 -27 -27 -27 -27 -27 -27 -27 -27 -27 -28 -28 -28 -28 -28 -28 -28 -28 -27 -27 -28 -28 -27 -27 -26 -26 -26 -26 -25 -25 -24 -23 -23 -23 -22 -22 -22 -22 -22 -22 -22 -21
-27 -27 -27 -27 -27 -27 -28 -28 -27 -27 -28 -28 -28 -28 -28 -28 -27 -28 -27 -27 -27 -28 -28 -27 -26 -25 -25 -26 -25 -25 -24 -24 -23 -23 -23 -23 -23 -22 -22 -22 -21 -21 -22
-27 -28 -28 -28 -28 -28 -28 -28 -27 -28 -29 -29 -28 -28 -28 -28 -27 -27 -27 -27 -27 -28 -27 -26 -25 -25 -25 -25 -24 -24 -24 -23 -23 -23 -23 -22 -22 -23 -23 -23 -23 -23 -23
-28 -28 -28 -28 -28 -28 -28 -28 -28 -29 -29 -29 -29 -28 -28 -28 -27 -27 -27 -27 -27 -27 -26 -25 -25 -25 -25 -24 -24 -24 -23 -23 -23 -23 -23 -23 -24 -24 -24 -24 -24 -25 -25
-28 -28 -28 -28 -28 -28 -28 -29 -30 -30 -29 -29 -29 -29 -28 -28 -27 -27 -27 -27 -27 -26 -25 -25 -25 -25 -24 -24 -24 -23 -23 -24 -23 -23 -23 -23 -24 -24 -25 -26 -26 -26 -26
-28 -28 -29 -29 -29 -29 -29 -30 -30 -30 -30 -30 -29 -29 -29 -28 -27 -27 -27 -27 -26 -25 -25 -25 -25 -24 -24 -23 -23 -23 -23 -23 -23 -23 -24 -25 -25 -26 -26 -26 -26 -26 -27
Height
5718 5713 5708 5703 5697 5691 5684 5676 5668 5660 5651 5642 5632 5623 5613 5603 5592 5582 5571 5560 5549 5536 5523 5511 5501 5489 5482 5475 5468 5462 5455 5446 5434 5446 5441 5442 5439 5436 5439 5436 5437 5436 5438
5708 5702 5697 5691 5684 5677 5669 5660 5652 5643 5634 5625 5615 5604 5593 5581 5568 5558 5547 5532 5521 5510 5498 5486 5477 5469 5462 5455 5448 5443 5435 5428 5417 5415 5424 5422 5417 5415 5414 5414 5415 5415 5416
5696 5690 5684 5677 5670 5661 5652 5644 5635 5626 5616 5606 5595 5583 5571 5557 5543 5529 5516 5505 5493 5482 5473 5463 5455 5447 5441 5435 5428 5421 5414 5408 5400 5391 5397 5399 5397 5394 5391 5391 5392 5393 5394
5684 5678 5670 5662 5653 5645 5636 5628 5619 5609 5598 5586 5573 5560 5544 5528 5512 5499 5488 5479 5470 5461 5452 5443 5435 5426 5418 5413 5406 5399 5390 5384 5379 5371 5369 5371 5370 5373 5367 5366 5369 5370 5373
5670 5662 5654 5645 5638 5630 5621 5611 5600 5589 5577 5563 5550 5534 5517 5500 5486 5476 5467 5458 5449 5441 5432 5422 5413 5403 5395 5387 5378 5375 5363 5355 5351 5347 5343 5341 5341 5343 5341 5341 5340 5348 5353
5655 5648 5640 5631 5622 5613 5603 5592 5580 5568 5554 5539 5523 5509 5495 5480 5468 5457 5443 5434 5426 5416 5406 5398 5387 5378 5367 5359 5350 5341 5333 5323 5319 5316 5313 5312 5315 5312 5313 5312 5313 5319 5330
5641 5633 5625 5616 5606 5594 5583 5572 5559 5546 5531 5516 5500 5485 5474 5462 5450 5438 5424 5412 5400 5388 5376 5364 5355 5344 5332 5322 5315 5307 5300 5297 5288 5286 5286 5286 5285 5285 5286 5286 5287 5291 5303
5626 5617 5608 5598 5587 5575 5563 5550 5536 5523 5507 5493 5480 5468 5457 5445 5431 5416 5401 5388 5375 5362 5349 5336 5323 5313 5302 5288 5279 5273 5271 5268 5266 5265 5265 5260 5258 5261 5261 5262 5265 5270 5278
5610 5600 5590 5580 5569 5557 5542 5528 5513 5500 5488 5476 5463 5452 5438 5429 5409 5392 5375 5362 5352 5342 5330 5318 5303 5291 5279 5266 5255 5250 5249 5249 5247 5247 5244 5242 5238 5241 5243 5244 5249 5250 5259
5594 5584 5574 5562 5549 5534 5520 5506 5492 5480 5470 5459 5450 5433 5418 5404 5388 5371 5355 5342 5332 5323 5316 5303 5290 5278 5266 5255 5245 5238 5234 5233 5232 5234 5231 5227 5225 5227 5230 5231 5235 5238 5243
5578 5567 5554 5540 5528 5513 5500 5486 5475 5464 5454 5443 5433 5418 5400 5382 5367 5353 5341 5328 5316 5311 5301 5291 5279 5267 5257 5248 5239 5231 5224 5221 5222 5220 5220 5218 5216 5218 5220 5222 5224 5226 5231
5560 5548 5536 5522 5507 5494 5482 5470 5459 5447 5437 5424 5412 5402 5384 5367 5352 5339 5328 5316 5305 5296 5288 5278 5267 5257 5249 5240 5232 5224 5218 5214 5211 5211 5209 5209 5210 5211 5213 5215 5217 5219 5222
5542 5529 5517 5504 5490 5476 5465 5455 5444 5431 5418 5406 5393 5382 5368 5353 5340 5327 5316 5306 5297 5287 5277 5267 5257 5248 5241 5234 5225 5218 5213 5208 5205 5204 5204 5205 5207 5208 5210 5212 5212 5213 5216
5525 5513 5500 5487 5475 5463 5450 5438 5427 5415 5403 5390 5377 5364 5351 5339 5327 5316 5307 5297 5288 5278 5269 5260 5251 5242 5233 5226 5220 5213 5208 5204 5201 5201 5202 5204 5205 5207 5207 5207 5209 5211 5213
5509 5496 5483 5471 5459 5450 5438 5424 5414 5402 5386 5371 5356 5343 5331 5324 5314 5302 5292 5283 5275 5266 5259 5253 5245 5237 5229 5222 5215 5208 5204 5202 5201 5202 5203 5203 5203 5203 5203 5204 5206 5209 5212
5492 5479 5467 5456 5445 5434 5425 5418 5404 5390 5377 5360 5343 5330 5320 5307 5298 5290 5280 5271 5263 5256 5251 5244 5237 5229 5222 5217 5211 5207 5204 5203 5203 5203 5202 5200 5199 5199 5200 5203 5206 5209 5211
5474 5462 5451 5439 5429 5419 5410 5400 5394 5386 5367 5350 5334 5321 5310 5298 5288 5278 5269 5261 5254 5247 5242 5237 5230 5223 5218 5213 5209 5207 5206 5205 5204 5202 5199 5197 5197 5198 5201 5203 5206 5208 5209
5455 5442 5432 5424 5415 5406 5396 5386 5375 5365 5355 5343 5325 5311 5301 5289 5278 5268 5259 5253 5248 5241 5235 5230 5224 5219 5215 5212 5211 5210 5209 5206 5203 5200 5198 5197 5199 5200 5203 5205 5206 5207 5208
5438 5429 5420 5412 5403 5392 5382 5371 5360 5349 5337 5324 5313 5302 5291 5280 5271 5261 5252 5246 5241 5236 5231 5225 5220 5217 5215 5214 5214 5213 5210 5207 5203 5200 5199 5200 5201 5202 5204 5205 5206 5208 5211
5425 5414 5406 5398 5389 5378 5368 5357 5346 5334 5322 5310 5300 5291 5282 5272 5263 5255 5248 5241 5236 5231 5226 5221 5218 5217 5217 5218 5217 5214 5210 5207 5204 5202 5201 5202 5203 5204 5205 5206 5209 5211 5215
5410 5402 5392 5383 5373 5364 5353 5342 5330 5319 5308 5299 5290 5281 5271 5263 5256 5249 5242 5237 5232 5228 5224 5220 5219 5220 5221 5221 5219 5215 5212 5209 5208 5208 5208 5207 5209 5210 5211 5212 5214 5215 5216
5395 5388 5379 5370 5361 5350 5338 5327 5316 5305 5295 5288 5280 5272 5264 5257 5251 5245 5239 5235 5230 5226 5223 5221 5222 5224 5224 5223 5220 5217 5216 5215 5215 5215 5215 5214 5216 5217 5217 5216 5215 5215 5214
5382 5374 5365 5356 5345 5335 5325 5314 5303 5292 5284 5277 5269 5263 5257 5251 5246 5241 5237 5232 5229 5226 5224 5224 5227 5228 5227 5225 5223 5221 5221 5222 5221 5221 5221 5220 5219 5218 5217 5216 5215 5214 5213
5368 5359 5350 5341 5331 5321 5310 5299 5288 5279 5272 5266 5259 5253 5248 5244 5241 5237 5234 5231 5229 5228 5228 5229 5231 5231 5230 5228 5229 5229 5229 5229 5229 5229 5227 5225 5223 5221 5219 5216 5214 5212 5209
5353 5344 5335 5325 5316 5306 5295 5283 5275 5268 5262 5255 5249 5245 5239 5236 5235 5234 5231 5230 5230 5231 5232 5234 5235 5235 5234 5235 5236 5236 5236 5237 5237 5233 5230 5228 5225 5221 5218 5214 5211 5207 5204
5338 5329 5319 5310 5300 5288 5277 5269 5263 5257 5251 5246 5241 5236 5234 5232 5232 5231 5231 5231 5232 5235 5237 5239 5239 5240 5241 5242 5243 5244 5245 5245 5242 5240 5235 5231 5227 5222 5219 5215 5212 5208 5205
Wind_Speed
41 44 47 51 55 59 64 67 71 74 76 78 81 83 86 89 93 95 100 104 105 104 100 98 95 89 80 70 67 65 65 67 71 64 65 64 67 67 66 65 65 67 67
44 49 53 57 61 65 68 71 72 75 77 79 82 86 89 94 100 102 104 104 101 96 89 84 78 73 68 66 65 63 65 66 69 69 61 60 62 64 67 66 65 64 62
51 57 59 63 65 68 69 73 75 77 79 83 87 92 97 101 103 102 99 93 89 83 79 75 72 70 68 68 69 70 72 73 75 77 72 69 67 65 64 64 64 63 63
60 61 63 65 69 71 73 74 78 81 84 89 94 98 102 101 97 92 86 81 79 78 76 75 75 75 75 74 75 78 81 82 82 83 83 79 76 71 71 68 63 63 62
61 63 66 69 71 73 76 79 82 85 90 95 99 100 99 90 84 81 78 77 77 76 76 77 79 81 82 83 84 84 88 90 90 90 90 87 83 78 77 74 71 63 58
63 65 67 71 74 76 79 82 86 91 96 99 99 94 85 78 77 77 79 80 81 83 85 86 88 90 92 93 94 95 96 96 94 92 89 86 79 75 70 69 70 67 58
65 68 71 74 76 80 83 88 92 96 97 95 89 80 76 75 79 83 87 90 91 92 93 93 93 92 93 94 93 93 92 88 87 85 81 76 70 66 63 62 62 63 59
69 72 74 76 80 83 88 93 95 95 93 86 78 74 76 81 87 91 92 92 90 86 83 79 75 76 77 78 78 78 75 72 69 67 65 64 61 57 53 52 51 53 55
72 74 76 79 83 88 92 94 93 90 83 74 72 76 83 88 92 92 88 82 76 72 69 64 67 67 65 62 62 61 57 52 51 49 49 50 52 47 44 43 42 45 47
73 76 79 83 88 92 93 91 88 81 73 71 75 82 89 92 88 81 75 74 69 60 58 58 58 60 58 54 52 50 46 41 38 34 35 38 41 39 34 34 34 37 39
75 79 83 88 91 92 90 85 78 72 72 75 79 86 92 90 79 73 72 67 60 57 53 51 52 52 50 47 44 42 40 36 31 28 24 27 30 27 23 24 28 31 31
78 82 87 90 90 89 84 76 72 72 74 79 83 88 90 79 73 70 67 58 58 58 52 50 49 47 45 43 41 41 39 36 29 21 17 15 15 14 17 20 22 25 26
81 86 88 88 88 82 76 72 71 74 78 82 87 90 83 71 66 63 57 54 56 53 47 43 46 44 41 41 42 40 35 28 23 15 7 7 10 12 14 19 23 26 22
84 87 89 87 80 74 72 73 74 76 80 84 88 88 75 67 63 59 54 53 52 46 42 40 45 44 41 41 38 36 30 23 12 4 1 3 6 10 16 21 19 15 13
87 89 88 80 74 71 71 73 74 77 82 87 89 82 72 66 63 60 57 54 50 45 43 41 43 41 36 36 35 32 23 10 4 5 4 4 7 13 17 12 10 10 8
89 86 80 75 72 70 71 70 73 77 80 85 82 72 68 68 65 60 54 53 49 47 43 40 41 36 32 30 28 20 8 5 7 7 11 12 8 11 11 10 7 5 7
83 79 76 72 70 70 71 72 71 72 78 81 72 64 65 64 61 56 53 51 50 47 40 38 37 31 28 27 15 4 7 11 14 18 24 18 3 13 9 4 0 6 7
78 74 72 69 69 70 70 72 74 75 77 76 63 61 60 59 55 51 50 47 42 40 34 35 31 25 23 11 3 7 11 14 19 24 21 5 7 6 6 5 7 7 4
72 68 67 66 67 69 70 73 75 77 80 73 59 57 56 51 49 45 42 42 41 32 30 28 24 19 8 2 5 9 14 19 24 15 6 4 5 6 7 6 6 6 11
66 65 66 66 67 69 71 74 76 79 79 65 57 54 51 46 41 39 41 38 30 29 25 22 16 9 2 4 8 13 19 24 14 12 10 6 4 3 2 5 9 11 12
64 64 65 66 68 70 73 75 78 80 74 57 52 52 46 41 39 40 35 28 28 25 20 15 10 4 5 7 11 17 23 13 15 18 18 20 17 14 11 8 7 8 10
62 63 64 65 68 71 75 78 80 78 65 51 48 45 39 36 35 33 27 26 27 18 14 10 7 9 7 8 14 19 12 18 19 18 18 17 12 7 2 2 3 5 7
62 62 64 66 70 73 76 80 80 69 54 47 47 38 36 35 31 27 25 23 20 15 9 8 12 10 5 11 14 14 20 19 19 19 14 11 12 14 13 10 8 8 10
62 64 66 69 72 75 79 81 71 56 48 45 42 37 39 32 26 23 22 17 14 8 8 15 12 6 10 12 20 23 21 21 18 16 19 18 14 12 12 13 15 16 15
64 67 70 71 74 79 81 72 56 46 43 43 38 39 31 21 18 17 13 11 7 8 17 15 7 9 17 23 25 24 25 27 22 23 22 19 17 17 17 16 14 13 11
69 70 71 75 80 80 69 54 45 42 41 37 36 28 21 13 11 12 5 6 8 18 18 11 10 20 26 27 30 33 28 29 31 28 23 22 21 19 19 20 21 21 20
Wind_Direction
298 303 305 306 308 309 310 309 308 307 306 306 306 305 304 303 303 303 303 302 301 301 299 296 295 295 295 294 293 292 290 288 287 288 286 282 280 275 269 264 264 260 254
303 304 308 310 311 311 310 309 307 307 306 304 304 304 305 305 304 303 302 303 303 300 297 296 294 293 293 294 293 292 291 290 289 289 287 285 282 279 277 270 264 259 260
306 310 312 313 311 310 309 309 308 305 304 305 306 307 306 305 305 306 306 303 301 300 299 296 294 293 293 292 292 292 291 290 289 289 288 286 283 280 277 275 271 266 259
311 312 311 310 311 311 309 306 305 305 307 308 308 308 308 309 309 308 306 305 304 302 299 296 294 293 292 291 290 289 288 288 287 287 287 287 284 281 277 274 270 268 263
310 311 310 311 310 308 307 307 307 308 309 309 310 311 312 311 309 307 306 305 303 301 298 295 293 292 291 290 289 288 287 286 285 285 285 284 283 281 277 273 270 265 262
309 309 310 309 309 308 309 310 310 310 311 313 314 315 313 311 310 309 307 306 304 301 298 295 294 292 290 289 288 287 286 285 284 283 283 283 282 281 278 273 269 264 259
309 310 310 310 310 311 311 311 312 313 314 316 316 314 313 313 312 311 308 306 304 302 300 298 296 294 291 289 286 284 283 283 282 283 284 284 283 280 277 271 267 262 256
310 311 311 311 312 312 313 314 315 315 318 318 315 315 315 314 313 311 309 307 306 305 304 304 304 302 299 295 289 285 283 281 281 280 282 284 283 281 275 270 263 257 253
311 311 311 311 312 314 316 316 318 319 318 314 314 315 315 317 315 313 312 311 311 311 310 310 310 310 306 299 294 292 288 286 283 284 282 281 282 280 275 269 260 256 251
310 311 311 312 315 317 318 319 319 317 314 313 316 317 319 319 318 316 315 316 316 316 317 314 312 310 309 308 305 302 300 296 292 288 284 281 278 277 273 268 262 256 252
310 312 314 317 318 320 320 319 316 313 312 316 319 320 321 320 318 317 318 318 316 319 320 318 317 317 317 317 314 310 306 304 299 296 283 271 271 274 272 266 262 258 253
313 316 318 320 321 321 319 316 314 313 315 319 321 322 322 320 318 317 318 316 316 320 319 319 317 319 322 320 316 311 309 310 307 301 287 271 260 258 258 259 260 262 263
317 319 321 322 321 319 316 315 315 317 319 321 321 322 322 321 320 319 319 317 317 319 316 320 322 320 319 316 313 311 312 310 307 302 274 243 238 241 247 253 257 261 268
319 320 321 322 319 316 316 317 318 319 320 321 322 323 322 321 322 321 319 316 319 320 314 317 321 321 319 316 315 315 316 312 309 307 281 244 253 264 261 258 259 265 258
319 321 321 318 316 317 317 318 318 320 322 323 324 324 321 321 321 321 321 318 319 319 318 316 320 322 317 314 314 314 314 313 7 14 331 316 291 263 265 256 239 207 227
321 320 318 316 317 317 317 317 318 320 323 325 324 321 320 321 321 322 319 317 316 315 316 317 322 322 317 316 315 309 319 11 5 346 333 335 266 258 247 193 175 216 250
319 318 317 316 316 316 316 317 318 320 324 326 322 319 320 320 321 320 317 316 318 317 316 318 324 320 321 322 320 332 9 3 348 339 332 329 265 175 161 145 258 307 284
318 317 316 314 315 315 316 317 319 322 326 326 321 320 320 322 322 319 315 317 322 321 319 320 321 323 327 325 354 17 8 347 333 326 332 128 143 163 193 223 289 287 207
315 314 312 312 314 314 316 318 321 324 327 326 322 321 322 323 321 316 315 317 320 322 320 319 320 331 332 2 23 17 344 336 336 352 24 157 201 224 254 262 283 178 142
313 312 312 313 313 315 317 319 322 325 327 325 322 321 322 322 320 319 319 320 324 325 321 320 330 338 65 50 17 345 338 344 9 45 52 77 88 83 96 109 134 153 180
313 312 312 313 315 316 318 320 323 326 325 322 321 323 324 323 321 324 324 326 329 327 323 328 344 85 79 42 354 344 352 28 71 75 80 84 82 84 92 113 155 193 219
312 312 312 313 315 318 320 321 323 324 323 319 320 323 325 323 323 325 325 329 331 328 329 349 88 88 70 2 346 350 51 86 77 71 65 60 53 45 28 269 272 295 309
310 311 313 315 317 318 319 321 322 321 320 318 321 320 319 319 320 322 327 327 331 332 357 89 95 82 28 359 11 80 86 76 66 54 44 44 47 45 37 23 356 326 306
311 314 316 317 317 318 319 320 320 320 319 318 319 316 317 311 312 318 323 327 333 358 86 104 97 58 20 55 97 89 80 71 64 65 64 53 37 14 354 339 331 327 325
314 315 316 316 317 318 318 319 319 318 316 319 318 318 317 306 310 326 325 332 356 88 117 107 92 45 90 101 90 84 82 81 69 56 46 33 18 6 2 2 3 4 2
315 316 316 316 317 318 318 317 318 317 319 320 318 316 315 302 314 328 337 357 93 125 116 111 72 105 104 95 94 91 85 76 64 55 45 35 32 38 46 52 52 51 53